This is the latest recevied weather packets stored in our database for station/object K5GTX. If no packets are shown the sender has not sent any weather packets the latest 10 day(s).
| Time | Temp. | Humidity | Pressure | Rain* | Wind** | Luminosity | Snow |
|---|---|---|---|---|---|---|---|
| 1777514193 | 17.22° C | 99% | 1020.8 hPa | 0 mm | - | 0 W/m² | - |
| 1777513888 | 17.22° C | 99% | 1020.3 hPa | 0 mm | - | 0 W/m² | - |
| 1777513586 | 17.22° C | 99% | 1019.9 hPa | 0 mm | - | 0 W/m² | - |
| 1777513282 | 17.22° C | 99% | 1019.9 hPa | 0 mm | - | 0 W/m² | - |
| 1777512979 | 16.67° C | 99% | 1019.5 hPa | 0 mm | - | 0 W/m² | - |
| 1777512675 | 16.67° C | 99% | 1019.7 hPa | 0 mm | - | 0 W/m² | - |
| 1777512372 | 16.67° C | 99% | 1019.7 hPa | 0 mm | - | 0 W/m² | - |
| 1777512069 | 16.67° C | 99% | 1019.8 hPa | 0 mm | - | 0 W/m² | - |
| 1777511767 | 16.67° C | 99% | 1020.1 hPa | 0 mm | - | 0 W/m² | - |
| 1777511464 | 16.67° C | 99% | 1019.5 hPa | 0 mm | - | 0 W/m² | - |
| 1777511161 | 16.67° C | 99% | 1019.5 hPa | 0 mm | - | 0 W/m² | - |
| 1777510856 | 16.67° C | 99% | 1019.7 hPa | 0 mm | - | 0 W/m² | - |
| 1777510553 | 16.67° C | 99% | 1019.8 hPa | 0 mm | - | 1 W/m² | - |
| 1777510250 | 17.22° C | 99% | 1019.8 hPa | 0 mm | - | 1 W/m² | - |
| 1777509946 | 16.67° C | 99% | 1019.6 hPa | 0 mm | - | 6 W/m² | - |
| 1777509642 | 16.67° C | 99% | 1019.5 hPa | 0 mm | - | 13 W/m² | - |
| 1777509339 | 16.67° C | 99% | 1019.6 hPa | 0 mm | - | 7 W/m² | - |
| 1777509036 | 16.67° C | 99% | 1019.4 hPa | 0 mm | - | 21 W/m² | - |
| 1777508733 | 16.67° C | 99% | 1019.5 hPa | 0 mm | - | 20 W/m² | - |
| 1777508430 | 16.67° C | 99% | 1019.8 hPa | 0 mm | - | 10 W/m² | - |
| 1777508127 | 16.67° C | 99% | 1019.7 hPa | 0 mm | - | 12 W/m² | - |
| 1777507824 | 16.67° C | 99% | 1019.2 hPa | 0 mm | - | 17 W/m² | - |
| 1777507521 | 16.67° C | 99% | 1019.4 hPa | 0 mm | - | 33 W/m² | - |
| 1777507218 | 16.67° C | 99% | 1019.3 hPa | 0 mm | - | 33 W/m² | - |
| 1777506916 | 16.67° C | 99% | 1020 hPa | 0 mm | - | 10 W/m² | - |
* Rain latest hour (hover to see other rain measurements)
** Current wind speed in m/s (hover to see current wind gust speed)